Weather in Ta Ku Ling

China     22°20′40″N   114°15′11″E
temp.,
°C
wind,
m/s
gust,
m/s
humid.,
%
clouds,
%
prec.,
mm/h
press.,
hPa
HPBL,
m
30 november, tue
tue3023:00+22ene33704 0.0 1018310
02:00+21nne47680 0.0 1018486
05:00+21nne914615 0.0 1018747
08:00+20nne1116610 0.0 1020863
11:00+22nne1113545 0.0 10201004
14:00+23nne1011500 0.0 10171099
17:00+23nne1011515 0.0 10171224
20:00+19nne1217555 0.0 1020830
1 december, wed
wed123:00+17n1215486 0.0 1020618
02:00+16n913408 0.0 1020561
05:00+16nne693442 0.0 1021446
08:00+16nne5733100 0.0 1023433
11:00+18ne4531100 0.0 1023680
14:00+19ene553576 0.0 1020939
17:00+20ne4631100 0.0 10201139
20:00+19ne4631100 0.0 1022900
2 december, thu
thu223:00+19ene354381 0.0 10221131
02:00+17nne5643100 0.0 1022358
05:00+16ne6754100 0.0 1022518
08:00+16ne445179 0.0 1023521
11:00+17nne12415 0.0 1023745
14:00+18se12355 0.0 1020823
17:00+19e343126 0.0 1019798
20:00+19nne47305 0.0 1021574
3 december, fri
fri323:00+18ene56451 0.0 1022841
02:00+17nne44450 0.0 1021592
05:00+16nne33340 0.0 1021286
08:00+16nne33351 0.0 1023267
11:00+19nne332665 0.0 1023715
14:00+20ne552919 0.0 10211047
17:00+20ne462910 0.0 1020904
20:00+19e444089 0.0 1022674
4 december, sat
sat423:00+19ne454655 0.0 1023956
02:00+17nne33396 0.0 1022233
05:00+16ne564975 0.0 1022566
08:00+16ne454530 0.0 1024540
11:00+18ne334112 0.0 1024776
14:00+18e33378 0.0 1022772
17:00+19e554084 0.0 1021811
20:00+19e67535 0.0 10221086